User: anonymous   Login
Location: Bishop's University Astronomical Observatory
(45.3661°N, 71.8475°W)
Time: 00:21:33
(UTC-04:00)
Language:

Meteor 2-5 Rocket - Orbit

View from above orbital plane
View from above orbital plane
View from above satellite
View from above satellite

Ground track
Ground track

The orbit data is extracted from the following two-line orbital elements,

1 11608U 79095B   16206.41562065  .00000049  00000-0  22097-4 0  9997
2 11608  81.2136 169.0770 0054851   4.4681 355.6965 14.06097991884011
Epoch (UTC): 24 July 2016 09:58:29
Eccentricity: 0.0054851
inclination: 81.2136°
perigee height: 833 km
apogee height: 912 km
right ascension of ascending node: 169.0770°
argument of perigee: 4.4681°
revolutions per day: 14.06097991
mean anomaly at epoch: 355.6965°
orbit number at epoch: 88401

The dashed part of the orbit path shows where the satellite is in the earth's shadow,  

DLR